Regional Weather Roundup
Issued by NWS San Diego, CA

Home | Current Version | Previous Version | Text Only | Print | Product List | Glossary On
Versions: 1 2 3 4 5 6 7 8 9 10 11 12 13 14 15 16 17 18 19 20 21 22 23 24 25 26 27 28 29 30 31 32 33 34 35 36 37 38 39 40 41 42 43 44 45 46 47 48 49 50
000
ASUS46 KSGX 300610
RWRSGX

SAN DIEGO HOURLY WEATHER ROUNDUP
NATIONAL WEATHER SERVICE SAN DIEGO CA
1100 PM PDT FRI AUG 29 2014

NOTE: "FAIR" INDICATES FEW OR NO CLOUDS BELOW 12,000 FEET WITH NO
SIGNIFICANT WEATHER AND/OR OBSTRUCTIONS TO VISIBILITY.

CAZ042-043-060-061-PZZ750-775-300700-

GREATER SAN DIEGO AREA

CITY           SKY/WX    TMP DP  RH WIND       PRES   REMARKS
LINDBERGH FLD  MOCLDY    70  64  81 W5        29.86S
POINT LOMA       N/A     67  64  89 W9          N/A
NATIONAL CITY    N/A     70  66  86 CALM      29.85F
CHULA VISTA      N/A     69  66  89 CALM      29.78S
IMPERIAL BEACH CLOUDY    65  63  93 SW3       29.85S FOG
BROWN FIELD    MOCLDY    65  63  93 W5        29.86S
MIRAMAR MCAS   MOCLDY    67  62  84 CALM      29.85S
MONTGOMERY FLD PTCLDY    68  64  87 W3        29.86R

$$

NORTH SAN DIEGO COUNTY

CITY           SKY/WX    TMP DP  RH WIND       PRES   REMARKS
CAMP PENDLETON CLOUDY    69  64  84 E5        29.84S HAZE
OCEANSIDE AP   CLEAR     67  61  81 CALM      29.83S
OCEANSIDE HBR    N/A     70  66  87 N3        29.86F
VISTA            N/A     68  63  84 CALM      29.82S
CARLSBAD       CLOUDY    69  64  84 CALM      29.84S
DEL MAR          N/A     68  66  93 CALM      29.87R
LA JOLLA SCRIP   N/A     68  66  92 CALM      29.82R
FALLBROOK        N/A     67  67 100 CALM      29.85R
ESCONDIDO        N/A     69  64  83 W3        29.85R
SAN MARCOS       N/A     68  63  85 CALM      29.82S
POWAY            N/A     67  62  86 CALM      29.85R

$$

EAST SAN DIEGO COUNTY

CITY           SKY/WX    TMP DP  RH WIND       PRES   REMARKS
RAMONA         CLEAR     65  59  81 NW5       29.87S
SANTEE LAKES     N/A     68  64  87 W2        29.85R
LA MESA          N/A     68  65  88 CALM      29.79R
JAMUL            N/A     66  62  87 CALM      29.82S
DESCANSO N       N/A     68  38  33 CALM      29.70S
MT. LAGUNA OBS   N/A     71  30  22 CALM      29.73F
CAMPO            N/A     66  49  54 NE3       29.91S

$$

ORANGE COUNTY AND THE LOS ANGELES BASIN

CITY           SKY/WX    TMP DP  RH WIND       PRES   REMARKS
JOHN WAYNE AP  CLEAR     72  64  76 S5        29.83S
LAGUNA BEACH     N/A     67  62  85 CALM      29.79F
LAKE FOREST FR   N/A     67  58  72 CALM      29.72F
SANTA ANA        N/A     70  63  79 CALM      29.78S
HUNTINGTON BCH   N/A     67  64  91 CALM      29.85S
LOS ALAMITOS   FAIR      68  60  75 S1        29.83S
FULLERTON      CLEAR     73  62  68 S3        29.82S
LONG BEACH     CLEAR     70  60  70 NW7       29.83S
L.A. AP        CLEAR     68  62  81 W6        29.83F
L.A. DOWNTOWN  CLEAR     70  62  76 CALM      29.83S

$$

THE INLAND EMPIRE

CITY           SKY/WX    TMP DP  RH WIND       PRES   REMARKS
CORONA         CLEAR     67  58  72 CALM      29.84S
CHINO          CLEAR     70  59  68 CALM      29.85S
ONTARIO        CLEAR     74  58  57 S5        29.85S
RIVERSIDE AP   CLEAR     74  55  51 S3        29.85S
RIV CYN CREST    N/A     76  63  64 CALM      29.82S
MORENO VALLEY    N/A     73  50  44 CALM      29.05S
MARCH ARB      CLEAR     72  53  51 NW1       29.88S
HORSETHIEF CYN   N/A     70  48  44 SW1       29.84S
PERRIS           N/A     75  57  53 NE1       29.85S
MENIFEE          N/A     75  58  54 CALM      29.92R
HEMET EAST       N/A     75  42  30 CALM      29.80R
FRENCH VALLEY  FAIR      70  55  60 CALM      29.88S
TEMECULA         N/A     70  62  74 CALM      29.81S

$$

SAN BERNARDINO AND RIVERSIDE COUNTY MOUNTAINS

CITY           SKY/WX    TMP DP  RH WIND       PRES   REMARKS
BIG BEAR AP    CLEAR     52  30  43 CALM      30.24S
PINE COVE        N/A     69  16  13 CALM      29.72F

$$

SOUTHERN DESERT INCLUDING THE COACHELLA VALLEY

CITY           SKY/WX    TMP DP  RH WIND       PRES   REMARKS
PALM SPRINGS   CLEAR     96  44  16 W6        29.72S
PALM DESERT      N/A     92  50  23 CALM      31.41S
THERMAL        CLEAR     95  44  17 N8        29.65S
BLYTHE         CLEAR     89  42  19 N3        29.69S
IMPERIAL AP    CLEAR     89  51  27 W9        29.66S
EL CENTRO NAS  CLEAR     90  48  23 W10       29.67S
YUMA AZ        CLEAR     97  41  14 W8        29.68S

$$

UPPER DESERT

CITY           SKY/WX    TMP DP  RH WIND       PRES   REMARKS
VICTORVILLE AP CLEAR     79  34  19 SW9       29.94F
HESPERIA         N/A     77  32  19 CALM      29.90R
APPLE VALLEY     N/A     77  34  21 CALM      30.02S
PALMDALE       CLEAR     79  35  20 SW6       29.93S
LANCASTER      CLEAR     80  35  19 W7        29.91S
EDWARDS AFB    CLEAR     78  37  22 SW13      29.87F
DAGGETT        CLEAR     87  36  16 W14       29.85S
29 PALMS N     CLEAR     87  36  16 W13       29.90R
NEEDLES        CLEAR     97  31   9 W14       29.72F

$$

REGIONAL REPORTS

CITY           SKY/WX    TMP DP  RH WIND       PRES   REMARKS
SANTA BARBARA  CLEAR     65  60  84 CALM      29.80S
SANDBERG       CLEAR     77  28  16 N23G33    30.08F
MT. WILSON       N/A     70  27  19 S2          N/A
LAS VEGAS NV   PTCLDY    92  29  10 S13       29.78S
PHOENIX AZ     CLEAR     95  45  17 E3        29.74S
TIJUANA        CLEAR     66  61  82 W5        29.88
ENSENADA NW      N/A     69  32  25 SE1       29.81F

$$

OFFSHORE ISLANDS

CITY           SKY/WX    TMP DP  RH WIND       PRES   REMARKS
CATALINA ARPT  CLEAR     72  44  36 NW6       29.89S
SAN NICOLAS IS MOCLDY   N/A N/A N/A W24       29.84S HAZE

$$

MARINE AND OFFSHORE BUOY REPORTS

STATION/POSITION SKY/WX   TEMP    WIND        PRES    SWELL
                          AIR SEA DIR/SP/G            HT/PER/DIR
                          (F)     (DEG/KT/KT) (MB)    (FT/S/D)
TANNER BANKS               65 69  310/ 16/ 19 1011.3F   3/220/ 9
S CLEMENTE BASIN           67 72  300/ 12/ 14 1010.4F   3/290/ 7
SAN NICOLAS IS.               65                N/A     2/190/13
SO. S. ROSA ISLA           63 65  300/ 25/ 29 1009.3F   3/ 9
W. S. BARBARA CH           61 63  310/ 23/ 29 1009.1F   2/210/10
M. S. BARBARA CH           65 66  250/ 12/ 14 1009.4R
S. MONICA BASIN            68 71  350/  4/  6 1009.7R   5/190/ 9
S PEDRO CHANNEL               72                N/A     2/170/14
DANA POINT                    70                N/A     2/200/11
CMP PENDLETON NS              73                N/A     2/220/13
OCEANSIDE OFFSHR              74                N/A     2/200/15
TORREY PINES OTR              74                N/A     2/200/13
LA JOLLA 1                 70 69   CALM  /  2 1010.7S
MISSION BAY BUOY              69                N/A     2/200/13
SAN DIEGO BAY                 75              1011.3R
POINT LOMA SOUTH              74                N/A     3/190/15

$$



USA.gov is the U.S. government's official web portal to all federal, state and local government web resources and services.